Location: Avenches
(46.8809°N, 7.0410°E)
Time: 21:47:18
(UTC+00:00)

N. Korean satellite - Visible Passes

Search period start: 26 February 2021 00:00
Search period end: 08 March 2021 00:00
Orbit: 451 x 503 km, 97.2° (Epoch: 26 February)

Date Brightness Start Highest point End Pass type
(mag) Time Alt. Az. Time Alt. Az. Time Alt. Az.
26 Feb 8.3 04:32:32 10° NNE 04:35:44 33° E 04:38:58 10° SSE visible
27 Feb 9.6 04:06:31 10° NE 04:08:52 17° E 04:11:12 10° SE visible
27 Feb 7.1 05:39:05 10° N 05:42:16 34° WNW 05:45:30 10° SW visible
28 Feb 6.4 05:12:08 10° N 05:15:37 75° WNW 05:19:09 10° SSW visible
01 Mar 7.5 04:45:27 10° NNE 04:48:52 49° E 04:52:20 10° S visible
02 Mar 9.0 04:19:08 10° NE 04:22:02 24° E 04:24:57 10° SSE visible
03 Mar 9.9 03:53:37 10° ENE 03:55:04 12° E 03:56:31 10° ESE visible
03 Mar 6.7 05:25:14 10° N 05:28:39 50° WNW 05:32:07 10° SSW visible
04 Mar 6.8 04:58:24 10° NNE 05:01:57 74° ESE 05:05:31 10° S visible
05 Mar 8.4 04:31:51 10° NNE 04:35:07 33° E 04:38:24 10° SSE visible
06 Mar 9.6 04:05:47 10° NE 04:08:12 17° E 04:10:38 10° SE visible
07 Mar 6.5 05:11:21 10° N 05:14:56 76° WNW 05:18:32 10° SSW visible
